Home   Weather   Limerick   Past weeks
Flag for Ireland

Past Weather in Limerick, Ireland — Yesterday and Last 2 Weeks

Now
59 °F

Broken clouds.


Feels Like: 57 °F
Forecast: 59 / 51 °F
Wind: 12 mph from West

Location: Shannon Airport

Current Time: May 25, 2019 at 6:14:04 pm

Latest Report: May 25, 2019 at 5:30 pm


Visibility: N/A

Pressure: 30.09 "Hg

Humidity: 88%

Dew Point: 55 °F

Location of LimerickLocation

Past Weather in Limerick — Graph

°F

Limerick Temperature Yesterday

Maximum temperature yesterday: 61 °F (at 1:00 pm)
Minimum temperature yesterday: 54 °F (at 1:00 am)
Average temperature yesterday: 57 °F

High & Low Weather Summary for the Past Weeks

 TemperatureHumidityPressure
High66 °F (May 13, 2:30 pm)100% (May 24, 3:00 am)30.57 "Hg (May 24, 3:00 am)
Low39 °F (May 11, 5:00 am)34% (May 14, 2:30 pm)29.77 "Hg (May 10, 5:00 pm)
Average55 °F71%30.14 "Hg
* Reported May 10 5:00 pm — May 25 5:00 pm, Limerick. Weather by CustomWeather, © 2019

Note: Actual official high and low records may vary slightly from our data, if they occured in-between our weather recording intervals... More about our weather records

Advertising

Limerick Weather History for the Previous 24 Hours

Scroll right to see more
 ConditionsComfort  
Time TempWeatherWind HumidityBarometerVisibility
5:00 pm
Sat, May 25
61 °FBroken clouds.14 mph83%30.12 "HgN/A
4:30 pm61 °FBroken clouds.9 mph83%30.12 "HgN/A
4:00 pm61 °FBroken clouds.12 mph83%30.12 "HgN/A
3:30 pm61 °FPartly sunny.14 mph83%30.12 "HgN/A
3:00 pm59 °FDrizzle. Partly sunny.12 mph88%30.12 "Hg6 mi
2:30 pm57 °FDrizzle. Mostly cloudy.15 mph94%30.12 "HgN/A
2:00 pm57 °FDrizzle. Mostly cloudy.14 mph94%30.12 "Hg6 mi
1:30 pm59 °FMore clouds than sun.15 mph88%30.12 "HgN/A
1:00 pm59 °FBroken clouds.13 mph88%30.12 "HgN/A
12:30 pm59 °FBroken clouds.12 mph88%30.12 "HgN/A
12:00 pm59 °FBroken clouds.14 mph82%30.12 "HgN/A
11:30 am59 °FPartly sunny.12 mph82%30.12 "HgN/A
11:00 am57 °FDrizzle. Broken clouds.9 mph88%30.12 "HgN/A
10:30 am57 °FDrizzle. Broken clouds.9 mph88%30.12 "HgN/A
10:00 am57 °FLight rain. Broken clouds.10 mph88%30.15 "HgN/A
9:30 am59 °FBroken clouds.12 mph82%30.15 "HgN/A
9:00 am57 °FPartly sunny.12 mph88%30.15 "Hg6 mi
8:30 am57 °FBroken clouds.12 mph94%30.12 "Hg6 mi
8:00 am57 °FBroken clouds.8 mph94%30.12 "Hg5 mi
7:30 am57 °FDrizzle. Mostly cloudy.9 mph94%30.12 "Hg3 mi
7:00 am57 °FDrizzle. Partly sunny.9 mph94%30.12 "Hg4 mi
6:30 am55 °FDrizzle. Partly sunny.9 mph100%30.12 "Hg4 mi
6:00 am55 °FLow clouds.9 mph100%30.12 "Hg4 mi
5:30 am55 °FDrizzle. Low clouds.7 mph94%30.12 "Hg2 mi
5:00 am55 °FDrizzle. Low clouds.5 mph94%30.12 "Hg3 mi
4:30 am55 °FDrizzle. Low clouds.5 mph94%30.12 "Hg6 mi
4:00 am55 °FPassing clouds.3 mph88%30.12 "HgN/A
3:30 am55 °FPassing clouds.5 mph88%30.12 "HgN/A
3:00 am55 °FPassing clouds.3 mph94%30.12 "HgN/A
2:30 am55 °FPassing clouds.2 mph94%30.12 "HgN/A
2:00 am55 °FPassing clouds.3 mph88%30.15 "HgN/A
1:30 am55 °FPassing clouds.3 mph88%30.15 "HgN/A
1:00 am55 °FLight rain. Passing clouds.2 mph88%30.15 "HgN/A
12:30 am55 °FLight rain. Partly cloudy.5 mph88%30.15 "HgN/A
12:00 am55 °FLight rain. Partly cloudy.6 mph88%30.15 "HgN/A
11:30 pm
Fri, May 24
55 °FPartly cloudy.7 mph82%30.15 "HgN/A
11:00 pm55 °FPartly cloudy.6 mph88%30.15 "HgN/A
10:00 pm55 °FPartly cloudy.5 mph82%30.15 "HgN/A
9:30 pm57 °FScattered clouds.5 mph77%30.15 "HgN/A
9:00 pm57 °FScattered clouds.5 mph77%30.15 "HgN/A
8:30 pm59 °FPartly sunny.3 mph72%30.15 "HgN/A
8:00 pm59 °FPartly sunny.6 mph72%30.15 "HgN/A
7:30 pm59 °FPartly sunny.7 mph72%30.15 "HgN/A
7:00 pm59 °FPartly sunny.9 mph68%30.15 "HgN/A
6:30 pm59 °FPartly sunny.8 mph72%30.15 "HgN/A
6:00 pm59 °FPartly sunny.12 mph72%30.15 "HgN/A
Weather by CustomWeather, © 2019

See weather overview